Grand Canyon, AZ

1:35 PM MST on March 29, 2017 (GMT -0700)
Grand Canyon National Park

Weather History for KGCN - April, 2013

Change the Weather History Date:

Thursday, April 11, 2013

  Actual Average Record
Temperature  
Mean Temperature 40 °F -  
Max Temperature 60 °F 54 °F 71 °F (1985)
Min Temperature 21 °F 22 °F 12 °F (2011)
Degree Days  
Heating Degree Days 24    
Moisture  
Dew Point 19 °F    
Average Humidity 49    
Maximum Humidity 78    
Minimum Humidity 19    
Precipitation  
Precipitation 0.00 in - - ()
Sea Level Pressure  
Sea Level Pressure 29.92 in    
Wind  
Wind Speed 3 mph (West)    
Max Wind Speed 13 mph    
Max Gust Speed 21 mph    
Visibility 10 miles    
Events      
Averages and records for this station are not official NWS values.
T = Trace of Precipitation, MM = Missing Value Source: NWS Daily Summary

Daily Weather History Graph

Daily Weather History Graph

Search for Another Location

Airport or City:

Trip Planner

Search our weather history database for the weather conditions in past years. The results will help you decide how hot, cold, wet, or windy it might be!

Date:

Astronomy

Apr. 11, 2013 Rise Set
Actual Time 6:00 AM MST 6:59 PM MST
Civil Twilight 5:34 AM MST 7:25 PM MST
Nautical Twilight 5:03 AM MST 7:56 PM MST
Astronomical Twilight 4:31 AM MST 8:28 PM MST
Moon 6:37 AM MST (4/11) 8:33 PM MST (4/11)
Length of Visible Light 13h 51m
Length of Day
12h 58m
New Moon, 2% of the Moon is Illuminated
Apr 11
New Moon
Apr 18
First Quarter
Apr 25
Full
May 2
Last Quarter
May 9
New

Hourly Weather History & Observations

Time (MST) Temp. Windchill Dew Point Humidity Pressure Visibility Wind Dir Wind Speed Gust Speed Precip Events Conditions
12:54 AM 25.0 °F - 16.0 °F 69% 30.04 in 10.0 mi Calm Calm - N/A   Clear
1:54 AM 26.1 °F 21.9 °F 17.1 °F 69% 30.01 in 10.0 mi ENE 3.5 mph - N/A   Clear
2:54 AM 24.1 °F 19.7 °F 16.0 °F 71% 30.00 in 10.0 mi NE 3.5 mph - N/A   Clear
3:54 AM 23.0 °F - 16.0 °F 74% 29.99 in 10.0 mi Calm Calm - N/A   Clear
4:54 AM 21.0 °F - 15.1 °F 78% 29.99 in 10.0 mi Calm Calm - N/A   Clear
5:54 AM 21.9 °F - 16.0 °F 78% 29.98 in 10.0 mi Calm Calm - N/A   Clear
6:54 AM 26.1 °F - 18.0 °F 71% 29.99 in 10.0 mi Calm Calm - N/A   Clear
7:54 AM 37.0 °F - 21.9 °F 54% 29.99 in 10.0 mi Calm Calm - N/A   Clear
8:54 AM 46.0 °F 43.1 °F 21.0 °F 37% 29.96 in 10.0 mi South 5.8 mph - N/A   Scattered Clouds
10:54 AM 55.0 °F - 17.1 °F 23% 29.92 in 10.0 mi West 6.9 mph - N/A   Overcast
11:54 AM 60.1 °F - 17.1 °F 19% 29.89 in 10.0 mi West 10.4 mph 18.4 mph N/A   Mostly Cloudy
12:54 PM 57.9 °F - 18.0 °F 21% 29.89 in 10.0 mi West 12.7 mph 20.7 mph N/A   Overcast
1:54 PM 54.0 °F - 19.9 °F 26% 29.92 in 10.0 mi WSW 5.8 mph 17.3 mph N/A   Overcast
2:54 PM 57.9 °F - 19.9 °F 23% 29.88 in 10.0 mi Variable 6.9 mph 16.1 mph N/A   Partly Cloudy
3:54 PM 57.0 °F - 19.0 °F 23% 29.87 in 10.0 mi Variable 5.8 mph - N/A   Scattered Clouds
4:54 PM 57.9 °F - 19.0 °F 22% 29.86 in 10.0 mi WSW 10.4 mph - N/A   Scattered Clouds
5:54 PM 57.0 °F - 19.9 °F 24% 29.85 in 10.0 mi North 4.6 mph - N/A   Mostly Cloudy
6:54 PM 48.0 °F - 23.0 °F 37% 29.87 in 10.0 mi Calm Calm - N/A   Overcast
7:54 PM 39.9 °F - 23.0 °F 51% 29.87 in 10.0 mi Calm Calm - N/A   Overcast
8:54 PM 37.0 °F - 21.9 °F 54% 29.86 in 10.0 mi Calm Calm - N/A   Overcast
9:54 PM 32.0 °F - 21.0 °F 64% 29.86 in 10.0 mi Calm Calm - N/A   Mostly Cloudy
10:54 PM 30.0 °F - 19.9 °F 66% 29.86 in 10.0 mi Calm Calm - N/A   Clear
11:54 PM 27.0 °F - 18.0 °F 69% 29.85 in 10.0 mi Calm Calm - N/A   Clear